Nasa Shuttle, FL

3:13 AM EDT on September 22, 2017 (GMT -0400)
Nasa Shuttle

Weather History for KTTS - August, 2013

Change the Weather History Date:

Sunday, August 25, 2013

  Actual Average Record
Temperature  
Mean Temperature 79 °F -  
Max Temperature 87 °F 86 °F 95 °F (2001)
Min Temperature 72 °F 71 °F 69 °F (2001)
Cooling Degree Days 14    
Growing Degree Days 29 (Base 50)    
Moisture  
Dew Point 75 °F    
Average Humidity 86    
Maximum Humidity 100    
Minimum Humidity 65    
Precipitation  
Precipitation 0.00 in - - ()
Sea Level Pressure  
Sea Level Pressure 30.15 in    
Wind  
Wind Speed 5 mph (NE)    
Max Wind Speed 10 mph    
Max Gust Speed -    
Visibility 7 miles    
Events Rain    
Averages and records for this station are not official NWS values.
T = Trace of Precipitation, MM = Missing Value Source: NWS Daily Summary

Daily Weather History Graph

Daily Weather History Graph

Search for Another Location

Airport or City:

Trip Planner

Search our weather history database for the weather conditions in past years. The results will help you decide how hot, cold, wet, or windy it might be!

Date:

Astronomy

Aug. 25, 2013 Rise Set
Actual Time 6:57 AM EDT 7:51 PM EDT
Civil Twilight 6:33 AM EDT 8:15 PM EDT
Nautical Twilight 6:04 AM EDT 8:44 PM EDT
Astronomical Twilight 5:35 AM EDT 9:13 PM EDT
Moon 10:52 PM EDT (8/25) 11:28 AM EDT (8/25)
Length of Visible Light 13h 42m
Length of Day
12h 54m
Waning Gibbous, 76% of the Moon is Illuminated
Aug 25
Waning Gibbous
Aug 28
Last Quarter
Sep 5
New
Sep 12
First Quarter
Sep 19
Full

Hourly Weather History & Observations

Time (EDT) Temp. Heat Index Dew Point Humidity Pressure Visibility Wind Dir Wind Speed Gust Speed Precip Events Conditions
12:58 AM 74.3 °F - 74.1 °F 99% 30.14 in 10.0 mi North 1.2 mph - N/A   Scattered Clouds
1:58 AM 75.2 °F - 75.0 °F 99% 30.12 in 6.0 mi WSW 2.3 mph - N/A   Mostly Cloudy
2:58 AM 72.9 °F - 72.9 °F 100% 30.11 in 10.0 mi North 2.3 mph - N/A   Clear
3:58 AM 73.4 °F - 73.4 °F 100% 30.12 in 10.0 mi NW 1.2 mph - N/A   Overcast
4:58 AM 74.1 °F - 74.1 °F 100% 30.11 in 10.0 mi NNE 3.5 mph - N/A   Overcast
5:58 AM 75.2 °F - 75.2 °F 100% 30.12 in 10.0 mi Calm Calm - N/A   Overcast
6:58 AM 75.9 °F - 75.9 °F 100% 30.14 in 10.0 mi NNE 3.5 mph - N/A   Overcast
7:58 AM 77.4 °F - 77.4 °F 100% 30.15 in 10.0 mi North 1.2 mph - N/A   Overcast
8:58 AM 80.1 °F 86.9 °F 79.2 °F 97% 30.16 in 7.0 mi NE 4.6 mph - N/A   Mostly Cloudy
9:48 AM 82.4 °F 92.4 °F 78.8 °F 89% 30.16 in 1.8 mi ENE 9.2 mph - N/A   Haze
9:58 AM 83.3 °F 92.8 °F 77.4 °F 82% 30.18 in 1.5 mi ENE 10.4 mph - N/A   Haze
10:18 AM 84.2 °F 94.1 °F 77.0 °F 79% 30.17 in 1.0 mi ENE 10.4 mph - N/A   Haze
10:23 AM 84.2 °F 94.1 °F 77.0 °F 79% 30.17 in 1.2 mi ENE 9.2 mph - N/A   Haze
10:33 AM 84.2 °F 94.1 °F 77.0 °F 79% 30.17 in 1.2 mi ENE 9.2 mph - N/A   Haze
10:38 AM 84.2 °F 94.1 °F 77.0 °F 79% 30.17 in 1.2 mi ENE 10.4 mph - N/A   Haze
10:48 AM 86.0 °F 96.9 °F 77.0 °F 74% 30.17 in 1.0 mi ENE 8.1 mph - N/A   Haze
10:58 AM 85.6 °F 95.9 °F 76.5 °F 74% 30.18 in 1.2 mi ENE 8.1 mph - N/A   Haze
11:13 AM 86.0 °F 95.1 °F 75.2 °F 70% 30.17 in 1.8 mi East 10.4 mph - N/A   Haze
11:18 AM 84.2 °F 92.3 °F 75.2 °F 74% 30.17 in 5.0 mi ENE 8.1 mph - N/A   Haze
11:58 AM 84.2 °F 91.6 °F 74.1 °F 72% 30.18 in 10.0 mi ENE 9.2 mph - N/A   Mostly Cloudy
12:58 PM 85.3 °F 94.2 °F 75.4 °F 72% 30.17 in 10.0 mi Variable 5.8 mph - N/A   Mostly Cloudy
1:58 PM 86.4 °F 93.8 °F 73.4 °F 65% 30.16 in 10.0 mi NE 8.1 mph - N/A   Mostly Cloudy
2:26 PM 80.6 °F 86.2 °F 75.2 °F 84% 30.14 in 10.0 mi NNE 6.9 mph - N/A Rain Light Rain
2:52 PM 80.6 °F 86.2 °F 75.2 °F 84% 30.13 in 10.0 mi NE 8.1 mph - N/A   Partly Cloudy
2:58 PM 81.0 °F 87.3 °F 76.1 °F 85% 30.14 in 10.0 mi ENE 8.1 mph - 0.00 in   Scattered Clouds
3:58 PM 81.1 °F 87.0 °F 74.8 °F 81% 30.13 in 10.0 mi ENE 8.1 mph - N/A   Partly Cloudy
4:58 PM 81.1 °F 86.4 °F 73.6 °F 78% 30.11 in 10.0 mi NE 8.1 mph - N/A   Partly Cloudy
5:58 PM 81.3 °F 87.2 °F 74.7 °F 80% 30.12 in 10.0 mi NE 6.9 mph - N/A   Clear
6:58 PM 81.7 °F 87.6 °F 74.1 °F 78% 30.13 in 10.0 mi NE 6.9 mph - N/A   Scattered Clouds
7:58 PM 78.8 °F - 75.2 °F 89% 30.14 in 10.0 mi North 2.3 mph - N/A   Overcast
8:03 PM 77.0 °F - 75.2 °F 94% 30.13 in 10.0 mi North 2.3 mph - N/A   Overcast
8:58 PM 77.4 °F - 74.8 °F 92% 30.15 in 10.0 mi North 1.2 mph - N/A   Mostly Cloudy
9:58 PM 76.1 °F - 74.7 °F 95% 30.15 in 10.0 mi NNW 3.5 mph - N/A   Clear
10:58 PM 75.7 °F - 75.2 °F 98% 30.16 in 10.0 mi NNW 2.3 mph - N/A   Clear
11:58 PM 75.4 °F - 75.2 °F 99% 30.16 in 10.0 mi North 3.5 mph - N/A   Mostly Cloudy